Time,TemperatureF,DewpointF,PressureIn,WindDirection,WindDirectionDegrees,WindSpeedMPH,WindSpeedGustMPH,Humidity,HourlyPrecipIn,Conditions,Clouds,dailyrainin,SoftwareType,DateUTC
2013-07-14 00:02:00,69.0,68.0,-100.00,NNE,17,1.0,2.0,96,0.30,,,0.73,,2013-07-14 04:02:00,
2013-07-14 00:32:00,71.0,70.0,-100.00,SE,144,2.0,4.0,96,0.00,,,0.74,,2013-07-14 04:32:00,
2013-07-14 00:42:00,72.0,70.0,-100.00,SSE,147,8.0,11.0,94,0.00,,,0.74,,2013-07-14 04:42:00,
2013-07-14 00:54:00,72.0,70.0,-100.00,SSE,147,8.0,11.0,94,0.00,,,0.74,,2013-07-14 04:54:00,
2013-07-14 01:02:00,72.0,70.0,-100.00,SSE,147,8.0,11.0,94,0.00,,,0.74,,2013-07-14 05:02:00,
2013-07-14 01:11:00,72.0,69.0,-100.00,SE,145,9.0,14.0,90,0.10,,,0.76,,2013-07-14 05:11:00,
2013-07-14 01:23:00,72.0,69.0,-100.00,SE,145,9.0,14.0,90,0.10,,,0.76,,2013-07-14 05:23:00,
2013-07-14 01:31:00,72.0,68.0,-100.00,SE,134,8.0,12.0,88,0.00,,,0.76,,2013-07-14 05:31:00,
2013-07-14 01:32:00,72.0,69.0,-100.00,SE,145,9.0,14.0,90,0.10,,,0.76,,2013-07-14 05:32:00,
2013-07-14 01:43:00,71.0,68.0,-100.00,SE,145,7.0,8.0,89,0.00,,,0.76,,2013-07-14 05:43:00,
2013-07-14 01:53:00,71.0,68.0,-100.00,SE,145,7.0,8.0,89,0.00,,,0.76,,2013-07-14 05:53:00,
2013-07-14 02:01:00,72.0,68.0,-100.00,SE,134,8.0,12.0,88,0.00,,,0.76,,2013-07-14 06:01:00,
2013-07-14 02:12:00,72.0,68.0,-100.00,SE,134,8.0,12.0,88,0.00,,,0.76,,2013-07-14 06:12:00,
2013-07-14 02:22:00,72.0,68.0,-100.00,SE,134,8.0,12.0,88,0.00,,,0.76,,2013-07-14 06:22:00,
2013-07-14 02:42:00,71.0,67.0,-100.00,SE,133,6.0,10.0,87,0.00,,,0.76,,2013-07-14 06:42:00,
2013-07-14 02:53:00,71.0,67.0,-100.00,SE,133,6.0,10.0,87,0.00,,,0.76,,2013-07-14 06:53:00,
2013-07-14 03:02:00,71.0,67.0,-100.00,ESE,121,3.0,7.0,88,0.00,,,0.79,,2013-07-14 07:02:00,
2013-07-14 03:12:00,71.0,67.0,-100.00,ESE,121,3.0,7.0,88,0.00,,,0.79,,2013-07-14 07:12:00,
2013-07-14 03:22:00,71.0,67.0,-100.00,ESE,121,3.0,7.0,88,0.00,,,0.79,,2013-07-14 07:22:00,
2013-07-14 03:33:00,71.0,67.0,-100.00,ESE,121,4.0,6.0,89,0.00,,,0.79,,2013-07-14 07:33:00,
2013-07-14 03:43:00,71.0,67.0,-100.00,ESE,121,4.0,6.0,89,0.00,,,0.79,,2013-07-14 07:43:00,
2013-07-14 04:01:00,71.0,67.0,-100.00,SE,141,5.0,7.0,86,0.00,,,0.79,,2013-07-14 08:01:00,
2013-07-14 04:11:00,71.0,67.0,-100.00,SE,141,5.0,7.0,86,0.00,,,0.79,,2013-07-14 08:11:00,
2013-07-14 04:22:00,71.0,67.0,-100.00,SE,141,5.0,7.0,86,0.00,,,0.79,,2013-07-14 08:22:00,
2013-07-14 04:32:00,71.0,66.0,-100.00,SSE,150,6.0,9.0,86,0.00,,,0.79,,2013-07-14 08:32:00,
2013-07-14 04:42:00,71.0,66.0,-100.00,SSE,150,6.0,9.0,86,0.00,,,0.79,,2013-07-14 08:42:00,
2013-07-14 04:53:00,71.0,66.0,-100.00,SE,141,6.0,8.0,85,0.00,,,0.79,,2013-07-14 08:53:00,
2013-07-14 05:01:00,71.0,66.0,-100.00,SE,141,6.0,8.0,85,0.00,,,0.79,,2013-07-14 09:01:00,
2013-07-14 05:53:00,70.0,66.0,-100.00,ESE,114,3.0,4.0,87,0.00,,,0.79,,2013-07-14 09:53:00,
2013-07-14 06:01:00,70.0,66.0,-100.00,ESE,123,4.0,5.0,88,0.00,,,0.79,,2013-07-14 10:01:00,
2013-07-14 06:12:00,70.0,66.0,-100.00,ESE,123,4.0,5.0,88,0.00,,,0.79,,2013-07-14 10:12:00,
2013-07-14 06:22:00,70.0,66.0,-100.00,ESE,123,4.0,5.0,88,0.00,,,0.79,,2013-07-14 10:22:00,
2013-07-14 06:32:00,70.0,66.0,-100.00,ESE,112,4.0,6.0,87,0.00,,,0.79,,2013-07-14 10:32:00,
2013-07-14 06:42:00,70.0,66.0,-100.00,ESE,112,4.0,6.0,87,0.00,,,0.79,,2013-07-14 10:42:00,
2013-07-14 06:53:00,70.0,66.0,-100.00,SE,145,4.0,6.0,88,0.00,,,0.79,,2013-07-14 10:53:00,
2013-07-14 07:02:00,70.0,66.0,-100.00,SSE,151,5.0,10.0,86,0.00,,,0.79,,2013-07-14 11:02:00,
2013-07-14 07:11:00,70.0,66.0,-100.00,SSE,151,5.0,10.0,86,0.00,,,0.79,,2013-07-14 11:11:00,
2013-07-14 07:22:00,70.0,66.0,-100.00,SSE,151,5.0,10.0,86,0.00,,,0.79,,2013-07-14 11:22:00,
2013-07-14 07:32:00,71.0,66.0,-100.00,SSE,150,10.0,16.0,86,0.00,,,0.79,,2013-07-14 11:32:00,
2013-07-14 07:43:00,71.0,66.0,-100.00,SSE,150,10.0,16.0,86,0.00,,,0.79,,2013-07-14 11:43:00,
2013-07-14 07:53:00,71.0,66.0,-100.00,South,181,4.0,7.0,85,0.00,,,0.79,,2013-07-14 11:53:00,
2013-07-14 08:02:00,71.0,67.0,-100.00,NE,35,1.0,5.0,85,0.00,,,0.79,,2013-07-14 12:02:00,
2013-07-14 08:12:00,71.0,67.0,-100.00,NE,35,1.0,5.0,85,0.00,,,0.79,,2013-07-14 12:12:00,
2013-07-14 08:22:00,71.0,67.0,-100.00,NE,35,1.0,5.0,85,0.00,,,0.79,,2013-07-14 12:22:00,
2013-07-14 08:33:00,71.0,67.0,-100.00,East,86,2.0,5.0,85,0.00,,,0.79,,2013-07-14 12:33:00,
2013-07-14 08:43:00,71.0,67.0,-100.00,East,86,2.0,5.0,85,0.00,,,0.79,,2013-07-14 12:43:00,
2013-07-14 08:53:00,72.0,67.0,-100.00,ESE,117,5.0,8.0,84,0.00,,,0.79,,2013-07-14 12:53:00,
2013-07-14 09:01:00,72.0,66.0,-100.00,ESE,119,6.0,8.0,83,0.00,,,0.79,,2013-07-14 13:01:00,
2013-07-14 09:11:00,72.0,66.0,-100.00,ESE,119,6.0,8.0,83,0.00,,,0.79,,2013-07-14 13:11:00,
2013-07-14 09:31:00,72.0,67.0,-100.00,SSE,154,8.0,10.0,83,0.00,,,0.79,,2013-07-14 13:31:00,
2013-07-14 09:32:00,72.0,67.0,-100.00,ESE,113,4.0,6.0,85,0.00,,,0.79,,2013-07-14 13:32:00,
2013-07-14 09:42:00,73.0,67.0,-100.00,SE,124,7.0,10.0,83,0.00,,,0.79,,2013-07-14 13:42:00,
2013-07-14 09:53:00,73.0,67.0,-100.00,SE,124,7.0,10.0,83,0.00,,,0.79,,2013-07-14 13:53:00,
2013-07-14 10:02:00,72.0,67.0,-100.00,SSE,154,8.0,10.0,83,0.00,,,0.79,,2013-07-14 14:02:00,
2013-07-14 10:11:00,72.0,67.0,-100.00,SSE,154,8.0,10.0,83,0.00,,,0.79,,2013-07-14 14:11:00,
2013-07-14 10:23:00,72.0,67.0,-100.00,SSE,154,8.0,10.0,83,0.00,,,0.79,,2013-07-14 14:23:00,
2013-07-14 10:31:00,74.0,68.0,-100.00,SSE,148,7.0,9.0,82,0.00,,,0.79,,2013-07-14 14:31:00,
2013-07-14 10:53:00,72.0,67.0,-100.00,SSE,151,11.0,14.0,82,0.00,,,0.79,,2013-07-14 14:53:00,
2013-07-14 11:01:00,74.0,68.0,-100.00,SSE,148,7.0,9.0,82,0.00,,,0.79,,2013-07-14 15:01:00,
2013-07-14 11:12:00,74.0,68.0,-100.00,SSE,148,7.0,9.0,82,0.00,,,0.79,,2013-07-14 15:12:00,
2013-07-14 11:22:00,74.0,68.0,-100.00,SSE,148,7.0,9.0,82,0.00,,,0.79,,2013-07-14 15:22:00,
2013-07-14 11:53:00,76.0,68.0,-100.00,SE,136,6.0,10.0,77,0.00,,,0.79,,2013-07-14 15:53:00,
2013-07-14 12:01:00,77.0,69.0,-100.00,SE,126,7.0,9.0,76,0.00,,,0.79,,2013-07-14 16:01:00,
2013-07-14 12:11:00,77.0,69.0,-100.00,SE,126,7.0,9.0,76,0.00,,,0.79,,2013-07-14 16:11:00,
2013-07-14 12:22:00,77.0,69.0,-100.00,SE,126,7.0,9.0,76,0.00,,,0.79,,2013-07-14 16:22:00,
2013-07-14 12:32:00,77.0,68.0,-100.00,SSE,165,9.0,12.0,75,0.00,,,0.79,,2013-07-14 16:32:00,
2013-07-14 12:43:00,77.0,68.0,-100.00,SSE,165,9.0,12.0,75,0.00,,,0.79,,2013-07-14 16:43:00,
2013-07-14 13:03:00,78.0,67.0,-100.00,SSE,162,8.0,11.0,70,0.00,,,0.79,,2013-07-14 17:03:00,
2013-07-14 13:11:00,79.0,67.0,-100.00,SE,143,8.0,11.0,65,0.00,,,0.79,,2013-07-14 17:11:00,
2013-07-14 13:12:00,78.0,67.0,-100.00,SSE,162,8.0,11.0,70,0.00,,,0.79,,2013-07-14 17:12:00,
2013-07-14 13:22:00,78.0,67.0,-100.00,SSE,162,8.0,11.0,70,0.00,,,0.79,,2013-07-14 17:22:00,
2013-07-14 13:32:00,79.0,66.0,-100.00,SSE,164,10.0,14.0,66,0.00,,,0.79,,2013-07-14 17:32:00,
2013-07-14 13:43:00,79.0,66.0,-100.00,SSE,164,10.0,14.0,66,0.00,,,0.79,,2013-07-14 17:43:00,
2013-07-14 13:53:00,79.0,67.0,-100.00,SE,143,8.0,11.0,65,0.00,,,0.79,,2013-07-14 17:53:00,
2013-07-14 14:01:00,79.0,67.0,-100.00,SE,143,8.0,11.0,65,0.00,,,0.79,,2013-07-14 18:01:00,
2013-07-14 14:11:00,80.0,67.0,-100.00,SSE,155,6.0,9.0,65,0.00,,,0.79,,2013-07-14 18:11:00,
2013-07-14 14:52:00,80.0,67.0,-100.00,SSE,155,6.0,9.0,65,0.00,,,0.79,,2013-07-14 18:52:00,
2013-07-14 15:02:00,80.0,67.0,-100.00,SSE,155,6.0,9.0,65,0.00,,,0.79,,2013-07-14 19:02:00,
2013-07-14 15:32:00,80.0,67.0,-100.00,South,176,10.0,13.0,64,0.00,,,0.79,,2013-07-14 19:32:00,
2013-07-14 15:43:00,80.0,67.0,-100.00,South,176,10.0,13.0,64,0.00,,,0.79,,2013-07-14 19:43:00,
2013-07-14 15:53:00,81.0,68.0,-100.00,South,171,6.0,8.0,64,0.00,,,0.79,,2013-07-14 19:53:00,
2013-07-14 16:02:00,82.0,67.0,-100.00,SE,137,7.0,10.0,62,0.00,,,0.79,,2013-07-14 20:02:00,
2013-07-14 16:11:00,82.0,67.0,-100.00,SE,137,7.0,10.0,62,0.00,,,0.79,,2013-07-14 20:11:00,
2013-07-14 16:22:00,82.0,67.0,-100.00,SE,137,7.0,10.0,62,0.00,,,0.79,,2013-07-14 20:22:00,
2013-07-14 16:32:00,81.0,65.0,-100.00,South,175,9.0,13.0,58,0.00,,,0.79,,2013-07-14 20:32:00,
2013-07-14 16:43:00,81.0,65.0,-100.00,South,175,9.0,13.0,58,0.00,,,0.79,,2013-07-14 20:43:00,
2013-07-14 17:32:00,83.0,67.0,-100.00,SSE,160,4.0,6.0,59,0.00,,,0.79,,2013-07-14 21:32:00,
2013-07-14 17:43:00,81.0,67.0,-100.00,SE,133,9.0,12.0,62,0.00,,,0.79,,2013-07-14 21:43:00,
2013-07-14 17:52:00,81.0,67.0,-100.00,SE,133,9.0,12.0,62,0.00,,,0.79,,2013-07-14 21:52:00,
2013-07-14 18:02:00,82.0,68.0,-100.00,SSE,168,6.0,8.0,63,0.00,,,0.79,,2013-07-14 22:02:00,
2013-07-14 18:11:00,82.0,68.0,-100.00,SSE,168,6.0,8.0,63,0.00,,,0.79,,2013-07-14 22:11:00,
2013-07-14 18:22:00,82.0,68.0,-100.00,SSE,168,6.0,8.0,63,0.00,,,0.79,,2013-07-14 22:22:00,
2013-07-14 18:32:00,82.0,67.0,-100.00,SSE,165,6.0,8.0,60,0.00,,,0.79,,2013-07-14 22:32:00,
2013-07-14 18:42:00,83.0,69.0,-100.00,ESE,113,3.0,6.0,63,0.00,,,0.79,,2013-07-14 22:42:00,
2013-07-14 18:53:00,83.0,69.0,-100.00,ESE,113,3.0,6.0,63,0.00,,,0.79,,2013-07-14 22:53:00,
2013-07-14 19:02:00,80.0,68.0,-100.00,ESE,103,4.0,6.0,65,0.00,,,0.79,,2013-07-14 23:02:00,
2013-07-14 19:11:00,80.0,68.0,-100.00,ESE,103,4.0,6.0,65,0.00,,,0.79,,2013-07-14 23:11:00,
2013-07-14 19:22:00,80.0,68.0,-100.00,ESE,103,4.0,6.0,65,0.00,,,0.79,,2013-07-14 23:22:00,
2013-07-14 19:32:00,81.0,67.0,-100.00,SSE,147,6.0,7.0,64,0.00,,,0.79,,2013-07-14 23:32:00,
2013-07-14 19:42:00,81.0,67.0,-100.00,SSE,147,6.0,7.0,64,0.00,,,0.79,,2013-07-14 23:42:00,
2013-07-14 19:53:00,79.0,68.0,-100.00,SE,134,3.0,4.0,68,0.00,,,0.73,,2013-07-14 23:53:00,
2013-07-14 20:02:00,80.0,69.0,-100.00,SE,136,3.0,4.0,70,0.00,,,0.62,,2013-07-15 00:02:00,
2013-07-14 20:11:00,80.0,69.0,-100.00,SE,136,3.0,4.0,70,0.00,,,0.62,,2013-07-15 00:11:00,
2013-07-14 20:22:00,80.0,69.0,-100.00,SE,136,3.0,4.0,70,0.00,,,0.62,,2013-07-15 00:22:00,
2013-07-14 20:32:00,79.0,68.0,-100.00,SE,131,4.0,6.0,69,0.00,,,0.58,,2013-07-15 00:32:00,
2013-07-14 20:43:00,79.0,68.0,-100.00,SE,131,4.0,6.0,69,0.00,,,0.58,,2013-07-15 00:43:00,
2013-07-14 20:53:00,79.0,68.0,-100.00,SE,138,2.0,3.0,70,0.00,,,0.57,,2013-07-15 00:53:00,
2013-07-14 21:01:00,78.0,68.0,-100.00,SE,131,3.0,4.0,71,0.00,,,0.57,,2013-07-15 01:01:00,
2013-07-14 21:11:00,78.0,68.0,-100.00,SE,131,3.0,4.0,71,0.00,,,0.57,,2013-07-15 01:11:00,
2013-07-14 21:22:00,78.0,68.0,-100.00,SE,131,3.0,4.0,71,0.00,,,0.57,,2013-07-15 01:22:00,
2013-07-14 21:32:00,77.0,69.0,-100.00,SSE,150,2.0,3.0,76,0.00,,,0.57,,2013-07-15 01:32:00,
2013-07-14 21:43:00,77.0,69.0,-100.00,SSE,150,2.0,3.0,76,0.00,,,0.57,,2013-07-15 01:43:00,
2013-07-14 22:11:00,76.0,68.0,-100.00,SSE,168,4.0,6.0,78,0.00,,,0.44,,2013-07-15 02:11:00,
2013-07-14 22:22:00,76.0,68.0,-100.00,SSE,168,4.0,6.0,78,0.00,,,0.44,,2013-07-15 02:22:00,
2013-07-14 22:32:00,75.0,68.0,-100.00,SSE,167,5.0,6.0,78,0.00,,,0.29,,2013-07-15 02:32:00,
2013-07-14 22:42:00,75.0,68.0,-100.00,SSE,167,5.0,6.0,78,0.00,,,0.29,,2013-07-15 02:42:00,
2013-07-14 22:53:00,75.0,68.0,-100.00,SSE,154,4.0,6.0,78,0.00,,,0.15,,2013-07-15 02:53:00,
2013-07-14 23:02:00,75.0,68.0,-100.00,SSE,165,5.0,7.0,78,0.00,,,0.12,,2013-07-15 03:02:00,
2013-07-14 23:11:00,75.0,68.0,-100.00,SSE,165,5.0,7.0,78,0.00,,,0.12,,2013-07-15 03:11:00,
2013-07-14 23:22:00,75.0,68.0,-100.00,SSE,165,5.0,7.0,78,0.00,,,0.12,,2013-07-15 03:22:00,
2013-07-14 23:32:00,74.0,68.0,-100.00,NNW,340,2.0,2.0,82,0.00,,,0.12,,2013-07-15 03:32:00,
2013-07-14 23:43:00,74.0,68.0,-100.00,NNW,340,2.0,2.0,82,0.00,,,0.12,,2013-07-15 03:43:00,
2013-07-14 23:53:00,72.0,68.0,-100.00,WSW,251,0.0,0.0,87,0.00,,,0.07,,2013-07-15 03:53:00,